EW6866 Weather Reports


time (UTC)temp
C
wind
direction
speed
KPH
gust
KPH
rain 1hr
cm
rain 24hr
cm
rain mn
cm
humidity
%
barometer
mb
20260510014505 18 0 0.0 0.0 0.00 0.00 0.00 88 1010.2
20260510013005 18 0 0.0 0.0 0.00 0.00 0.00 87 1010.2
20260510011505 18 0 0.0 0.0 0.00 0.00 0.00 86 1010.3
20260510010005 19 0 0.0 0.0 0.00 0.00 0.00 85 1010.1
20260510004505 20 0 0.0 0.0 0.00 0.00 0.00 83 1009.9
20260510003005 20 0 0.0 0.0 0.00 0.00 0.00 82 1009.5
20260510001504 20 0 0.0 0.0 0.00 0.00 0.00 81 1009.6
20260510000005 21 0 0.0 0.0 0.00 0.00 0.00 79 1009.6
20260509234505 21 0 0.0 0.0 0.00 0.00 0.00 77 1009.4
20260509233005 22 0 0.0 0.0 0.00 0.00 0.00 75 1009.2
20260509231504 22 0 0.0 0.0 0.00 0.00 0.00 74 1009.3
20260509230004 22 163 0.0 1.6 0.00 0.00 0.00 72 1009.3
20260509224525 23 135 0.0 1.6 0.00 0.00 0.00 70 1009.2
20260509223005 23 166 1.6 8.0 0.00 0.00 0.00 69 1009.3
20260509221526 23 136 0.0 4.8 0.00 0.00 0.00 68 1009.2
20260509220005 23 239 0.0 1.6 0.00 0.00 0.00 66 1009.2
20260509214504 23 219 0.0 1.6 0.00 0.00 0.00 66 1009.1
20260509213005 23 279 0.0 4.8 0.00 0.00 0.00 65 1008.9
20260509211504 23 146 0.0 4.8 0.00 0.00 0.00 64 1009.0
20260509210005 23 215 0.0 4.8 0.00 0.00 0.00 64 1009.0
20260509204505 23 266 0.0 4.8 0.00 0.00 0.00 63 1009.1
20260509203006 24 234 1.6 4.8 0.00 0.00 0.00 60 1009.2
20260509201526 25 208 1.6 11.3 0.00 0.00 0.00 58 1009.1
20260509200005 26 151 1.6 9.7 0.00 0.00 0.00 58 1009.0
20260509194504 25 232 1.6 9.7 0.00 0.00 0.00 56 1009.2
20260509193004 24 165 1.6 8.0 0.00 0.00 0.00 57 1009.2
20260509191505 25 209 1.6 12.9 0.00 0.00 0.00 55 1009.7
20260509190005 25 156 1.6 12.9 0.00 0.00 0.00 53 1009.8
20260509184504 25 173 1.6 14.5 0.00 0.00 0.00 51 1009.9
20260509183004 25 168 1.6 8.0 0.00 0.00 0.00 51 1010.0
20260509181504 24 167 3.2 12.9 0.00 0.00 0.00 51 1010.0
20260509180005 24 192 3.2 16.1 0.00 0.00 0.00 52 1009.9
20260509174505 24 198 1.6 11.3 0.00 0.00 0.00 51 1010.0
20260509173025 24 226 3.2 14.5 0.00 0.00 0.00 51 1010.2
20260509171504 24 186 3.2 14.5 0.00 0.00 0.00 53 1010.6
20260509170004 23 177 1.6 14.5 0.00 0.00 0.00 55 1010.6
20260509164504 23 202 1.6 12.9 0.00 0.00 0.00 58 1010.4
20260509163004 23 197 3.2 14.5 0.00 0.00 0.00 59 1010.7
20260509161504 23 236 1.6 9.7 0.00 0.00 0.00 63 1010.5
20260509160005 23 213 1.6 8.0 0.00 0.00 0.00 69 1011.0
20260509154505 22 213 1.6 9.7 0.00 0.00 0.00 71 1011.8
20260509153004 22 211 1.6 6.4 0.00 0.00 0.00 74 1012.1
20260509151504 22 182 1.6 4.8 0.00 0.00 0.00 76 1012.5
20260509150004 22 170 1.6 6.4 0.00 0.00 0.00 78 1012.6
20260509144503 22 251 1.6 6.4 0.00 0.00 0.00 76 1012.8
20260509143003 22 247 1.6 6.4 0.00 0.00 0.00 77 1012.7
20260509141504 21 258 1.6 8.0 0.00 0.00 0.00 80 1012.6
20260509140005 21 268 1.6 8.0 0.00 0.00 0.00 81 1012.3
20260509134503 20 265 1.6 8.0 0.00 0.00 0.00 83 1012.5
20260509133004 19 174 0.0 3.2 0.00 0.00 0.00 86 1012.7
20260509131525 18 199 0.0 1.6 0.00 0.00 0.00 88 1012.9
20260509130025 17 241 0.0 4.8 0.00 0.00 0.00 90 1012.9
20260509124524 17 0 0.0 0.0 0.00 0.00 0.00 95 1013.0
20260509123005 16 0 0.0 0.0 0.00 0.00 0.00 96 1012.9
20260509121504 15 0 0.0 0.0 0.00 0.00 0.00 96 1013.0
20260509120004 15 0 0.0 0.0 0.00 0.00 0.00 96 1013.1
20260509114504 14 0 0.0 0.0 0.00 0.00 0.00 96 1013.0
20260509113004 13 0 0.0 0.0 0.00 0.00 0.00 96 1013.0
20260509111525 13 0 0.0 0.0 0.00 0.00 0.00 96 1013.0
20260509110004 13 0 0.0 0.0 0.00 0.00 0.00 96 1013.0
20260509104503 13 0 0.0 0.0 0.00 0.00 0.00 95 1013.3
20260509103025 13 0 0.0 0.0 0.00 0.00 0.00 95 1013.4
20260509101504 12 226 0.0 1.6 0.00 0.00 0.00 96 1013.1
20260509100005 12 0 0.0 0.0 0.00 0.00 0.00 95 1012.9
20260509094524 12 0 0.0 0.0 0.00 0.00 0.00 95 1012.9
20260509093003 13 0 0.0 0.0 0.00 0.00 0.00 95 1013.0
20260509091504 13 0 0.0 0.0 0.00 0.00 0.00 95 1013.5
20260509090004 12 0 0.0 0.0 0.00 0.00 0.00 95 1013.5
20260509084503 13 0 0.0 0.0 0.00 0.00 0.00 94 1013.5
20260509083003 13 0 0.0 0.0 0.00 0.00 0.00 94 1013.6
20260509081504 13 0 0.0 0.0 0.00 0.00 0.00 94 1013.6
20260509080004 13 0 0.0 0.0 0.00 0.00 0.00 93 1013.7
20260509074505 13 0 0.0 0.0 0.00 0.00 0.00 93 1013.7
20260509073005 13 0 0.0 0.0 0.00 0.00 0.00 92 1013.5
20260509071505 13 0 0.0 0.0 0.00 0.00 0.00 92 1013.6
20260509070006 13 0 0.0 0.0 0.00 0.00 0.00 91 1014.0
20260509064506 14 226 0.0 1.6 0.00 0.00 0.00 90 1014.1
20260509063005 15 0 0.0 0.0 0.00 0.00 0.00 89 1014.2
20260509061505 15 0 0.0 0.0 0.00 0.00 0.00 88 1014.4
20260509060006 15 0 0.0 0.0 0.00 0.00 0.00 88 1014.5
20260509054505 15 258 0.0 1.6 0.00 0.00 0.00 88 1014.7
20260509053006 15 0 0.0 0.0 0.00 0.00 0.00 87 1014.8
20260509051505 15 263 0.0 1.6 0.00 0.00 0.00 86 1014.9
20260509050005 15 268 0.0 1.6 0.00 0.00 0.00 85 1014.9
20260509044505 15 280 0.0 1.6 0.00 0.00 0.00 84 1014.9
20260509043005 15 279 0.0 3.2 0.00 0.00 0.00 83 1014.9
20260509041506 15 272 0.0 3.2 0.00 0.00 0.00 82 1015.1
20260509040006 15 278 0.0 1.6 0.00 0.00 0.00 82 1014.9
20260509034504 15 259 0.0 1.6 0.00 0.00 0.00 81 1015.1
20260509033005 16 273 0.0 3.2 0.00 0.00 0.00 80 1015.2
20260509031505 16 287 0.0 1.6 0.00 0.00 0.00 79 1015.3
20260509030006 16 263 0.0 4.8 0.00 0.00 0.00 78 1015.3
20260509024505 16 244 0.0 4.8 0.00 0.00 0.00 77 1015.3
20260509023005 16 291 0.0 3.2 0.00 0.00 0.00 76 1015.6
20260509021526 16 297 0.0 4.8 0.00 0.00 0.00 77 1015.6
20260509020005 16 283 0.0 1.6 0.00 0.00 0.00 76 1015.4